Regional Weather Roundup
Issued by NWS Newport/Morehead, NC

Current Version | Previous Version | Text Only | Print | Product List | Glossary On
Versions: 1 2 3 4 5 6 7 8 9 10 11 12 13 14 15 16 17 18 19 20 21 22 23 24 25 26 27 28 29 30 31 32 33 34 35 36 37 38 39 40 41 42 43 44 45 46 47 48 49 50
000
ASUS42 KMHX 290024
RWRMHX
WEATHER ROUNDUP FOR EASTERN NORTH CAROLINA
NATIONAL WEATHER SERVICE NEWPORT/MOREHEAD CITY NC
800 PM EDT TUE JUL 28 2015

NOTE: "FAIR" INDICATES FEW OR NO CLOUDS BELOW 12,000 FEET
WITH NO SIGNIFICANT WEATHER AND/OR OBSTRUCTIONS TO VISIBILITY

NCZ015>017-031-032-045>047-102-103-290100-
NORTH COAST

CITY           SKY/WX    TMP DP  RH WIND       PRES   REMARKS
EDENTON          N/A     80  71  72 S7        29.98S
ELIZABETH CITY PTCLDY    81  71  71 SE5       29.98S
KITTY HAWK     PTCLDY    81  68  64 SE5       29.98F
MANTEO         PTCLDY    79  70  74 SE5       30.00S

$$

NCZ045>047-081-094-103-104-290100-
CENTRAL COAST

CITY           SKY/WX    TMP DP  RH WIND       PRES   REMARKS
FRISCO         PTCLDY    80  68  66 E5        29.99R
SWANQUARTER      N/A     79 N/A N/A E5        29.94F

$$

NCZ095-097-098-100-101-290100-
SOUTHERN COAST

CITY           SKY/WX    TMP DP  RH WIND       PRES   REMARKS
BEAUFORT       CLEAR     80  71  74 VRB3      29.97S
CEDAR ISLAND     N/A     81 N/A N/A E12       30.03S
JACKSONVILLE   CLOUDY    80  70  71 S5        29.97R
PINEY ISLAND   PTCLDY   N/A N/A N/A E6        29.98R
WILMINGTON     MOCLDY    81  71  71 E6        29.97R


$$

NCZ011>013-027>030-043-044-078>080-089-090>093-098-290100-
COASTAL PLAIN

CITY           SKY/WX    TMP DP  RH WIND       PRES   REMARKS
AHOSKIE        MOCLDY    78  67  67 CALM      29.98S
CLINTON        MOCLDY    84  72  67 CALM      29.98R
ELIZABETHTOWN  MOCLDY    83  69  63 CALM      29.97S
GOLDSBORO      CLOUDY    85  74  68 SE3       29.96R
GREENVILLE     MOCLDY    82  72  69 SE6       29.99S
HAVELOCK       PTCLDY    81  70  69 E6        29.98R
KENANSVILLE    CLOUDY    82  71  69 CALM      29.98S
KINSTON        CLOUDY    84  70  61 SE5       29.99R
NEW BERN       MOCLDY    82  68  62 E5        29.99R
RICHLANDS      CLOUDY    81  66  61 CALM      29.99R
ROCKY MOUNT    CLOUDY    81  73  76 CALM      29.97R
WASHINGTON     MOCLDY    80  69  70 CALM      29.98S
WHITEVILLE     PTCLDY    83  71  67 E5        29.96R

$$

AMZ130-135-150-152-154-156-158-170-250-252-270-ANZ085-086-088-633-658-670-290100-
MARINE OBSERVATIONS

STATION/POSITION TIME  TEMP    WIND        PRES    WAVE   SWELL
                       AIR SEA DIR/SP/G            HT/PER HT/PER
                 (UTC) (F)     (DEG/KT/KT) (MB)    (FT/S) (FT/S)
CHESAPEAKE LIGHT 0000   80     170/ 13/ 14 1016.0
64 E VA BEACH    2350   80 82  160/  4/  6 1015.4    2/11   2/11
DUCK             0000   80 77  140/ 14/ 15 1014.3
2 E DUCK         2311      81                N/A     2/11
OREGON INLET     0000   80 86  130/  3/  5 1015.5
13E OREGON INLT  0000      80                N/A     2/11   2/11
HATTERAS CG      0000   81 84   70/  6/  7 1015.1
DIAMOND BUOY     NOT AVBL
CAPE LOOKOUT     0000   81      70/ 11/ 12 1014.4
BEAUFORT LAB     0000   81 81   60/  5/  6 1014.2
30 SE NEW RVR IN NOT AVBL
27 SE WRIGHTSVLE 0000   79 82   80/  8/ 12   N/A
5 SE WRIGHTSVLE  NOT AVBL
225 S CAPE HAT   2350   82 82  230/ 17/ 19 1013.4    8/ 7   3/11
41 SE CHARLESTON 2350   83 85   60/ 10/ 12 1013.4    3/ 5   3/ 5

$$


USA.gov is the U.S. government's official web portal to all federal, state and local government web resources and services.